User: anonymous   Login
Location: Caltech
(34.1382°N, 118.1253°W)
Time: 08:43:35
(UTC-07:00)
Language:

Oscar 10/S400 - Orbit

View from above orbital plane
View from above orbital plane
View from above satellite
View from above satellite

Ground track
Ground track

The orbit data is extracted from the following two-line orbital elements,

1 14129U 83058B   14301.55557972 -.00000200  00000-0  00000+0 0  2349
2 14129 026.0268 193.1731 6040674 041.8762 308.0965 02.05871775207993
Epoch (UTC): 28 October 2014 13:20:02
Eccentricity: 0.6040674
inclination: 26.0268°
perigee height: 3956 km
apogee height: 35490 km
right ascension of ascending node: 193.1731°
argument of perigee: 41.8762°
revolutions per day: 2.05871775
mean anomaly at epoch: 308.0965°
orbit number at epoch: 20799

The dashed part of the orbit path shows where the satellite is in the earth's shadow,  

DLR